Weather History for KCNB - November, 2012

Change the Weather History Date:

Sunday, November 25, 2012

  Actual Average (KMML) Record (KMML)
Temperature  
Mean Temperature 27 °F -  
Max Temperature 34 °F 36 °F 53 °F (1984)
Min Temperature 19 °F 19 °F -13 °F (1977)
Degree Days  
Heating Degree Days 38    
Moisture  
Dew Point 23 °F    
Average Humidity 76    
Maximum Humidity 87    
Minimum Humidity 64    
Precipitation  
Precipitation 0.00 in - - ()
Sea Level Pressure  
Sea Level Pressure 30.03 in    
Wind  
Wind Speed 10 mph (NW)    
Max Wind Speed 17 mph    
Max Gust Speed 22 mph    
Visibility 10 miles    
Events      
Averages and records for this station are not official NWS values.
T = Trace of Precipitation, MM = Missing Value Source: NWS Daily Summary

Daily Weather History Graph

Daily Weather History Graph

Search for Another Location

Airport or City:

Trip Planner

Search our weather history database for the weather conditions in past years. The results will help you decide how hot, cold, wet, or windy it might be!

Date:

Astronomy

Nov. 25, 2012 Rise Set
Actual Time 7:35 AM CST 4:48 PM CST
Civil Twilight 7:03 AM CST 5:21 PM CST
Nautical Twilight 6:26 AM CST 5:57 PM CST
Astronomical Twilight 5:52 AM CST 6:32 PM CST
Moon 3:10 PM CST 4:45 AM CST
Length of Visible Light 10h 17m
Length of Day
9h 12m
Waxing Gibbous, 93% of the Moon is Illuminated
Nov 25
Waxing Gibbous
Nov 28
Full
Dec 6
Last Quarter
Dec 13
New
Dec 19
First Quarter

Hourly Weather History & Observations

Time (CST) Temp. Windchill Dew Point Humidity Pressure Visibility Wind Dir Wind Speed Gust Speed Precip Events Conditions
12:15 AM 30.2 °F 22.6 °F 23.9 °F 77% 29.86 in 10.0 mi West 8.1 mph - N/A   Clear
12:35 AM 31.3 °F 23.9 °F 25.0 °F 77% 29.87 in 10.0 mi West 8.1 mph - N/A   Mostly Cloudy
12:55 AM 32.0 °F 23.6 °F 26.1 °F 79% 29.87 in 10.0 mi WNW 10.4 mph - N/A   Overcast
1:15 AM 33.1 °F 25.5 °F 28.2 °F 82% 29.88 in 10.0 mi NW 9.2 mph - N/A   Overcast
1:35 AM 33.4 °F 23.9 °F 28.4 °F 82% 29.88 in 10.0 mi NW 13.8 mph 18.4 mph N/A   Overcast
1:55 AM 33.3 °F 25.7 °F 28.9 °F 84% 29.89 in 10.0 mi NW 9.2 mph - N/A   Overcast
2:15 AM 33.6 °F 24.1 °F 29.1 °F 84% 29.90 in 10.0 mi NNW 13.8 mph 19.6 mph N/A   Overcast
2:35 AM 32.2 °F 21.8 °F 28.4 °F 86% 29.91 in 10.0 mi NNW 15.0 mph 21.9 mph N/A   Overcast
2:54 AM 31.8 °F 21.8 °F 27.9 °F 85% 29.92 in 10.0 mi NNW 13.8 mph 19.6 mph N/A   Overcast
3:15 AM 31.1 °F 21.4 °F 27.0 °F 85% 29.93 in 10.0 mi NNW 12.7 mph 21.9 mph N/A   Overcast
3:35 AM 30.7 °F 20.9 °F 26.4 °F 84% 29.92 in 10.0 mi NNW 12.7 mph - N/A   Overcast
3:55 AM 30.6 °F 20.7 °F 26.2 °F 84% 29.94 in 10.0 mi NNW 12.7 mph 18.4 mph N/A   Overcast
4:15 AM 30.2 °F 21.3 °F 26.1 °F 85% 29.94 in 10.0 mi NNW 10.4 mph - N/A   Overcast
4:35 AM 30.0 °F 19.5 °F 25.7 °F 84% 29.95 in 10.0 mi NNW 13.8 mph 20.7 mph N/A   Overcast
4:54 AM 29.8 °F 18.0 °F 25.5 °F 84% 29.95 in 10.0 mi NNW 17.3 mph 21.9 mph N/A   Overcast
5:15 AM 29.1 °F 18.9 °F 25.2 °F 85% 29.95 in 10.0 mi NNW 12.7 mph 18.4 mph N/A   Overcast
5:35 AM 28.9 °F 20.4 °F 25.0 °F 85% 29.95 in 10.0 mi NNW 9.2 mph 17.3 mph N/A   Overcast
5:55 AM 28.6 °F 19.9 °F 24.8 °F 86% 29.96 in 10.0 mi NNW 9.2 mph - N/A   Overcast
6:15 AM 28.0 °F 17.5 °F 24.3 °F 86% 29.97 in 10.0 mi NNW 12.7 mph 19.6 mph N/A   Overcast
6:35 AM 26.6 °F 16.8 °F 23.0 °F 86% 29.97 in 10.0 mi NNW 10.4 mph - N/A   Overcast
6:55 AM 26.2 °F 16.4 °F 22.8 °F 87% 29.98 in 10.0 mi NNW 10.4 mph - N/A   Overcast
7:15 AM 26.1 °F 16.8 °F 22.6 °F 87% 30.00 in 10.0 mi NW 9.2 mph - N/A   Overcast
7:34 AM 25.5 °F 14.3 °F 22.1 °F 87% 30.00 in 10.0 mi NNW 12.7 mph 17.3 mph N/A   Overcast
7:55 AM 25.2 °F 14.4 °F 21.7 °F 87% 30.00 in 10.0 mi NW 11.5 mph 17.3 mph N/A   Overcast
8:15 AM 24.8 °F 14.0 °F 21.6 °F 87% 30.01 in 10.0 mi NNW 11.5 mph - N/A   Overcast
8:35 AM 24.8 °F 16.9 °F 21.2 °F 86% 30.02 in 10.0 mi NW 6.9 mph - N/A   Overcast
8:55 AM 25.3 °F 18.5 °F 21.6 °F 86% 30.02 in 10.0 mi WNW 5.8 mph - N/A   Overcast
9:15 AM 25.7 °F 18.0 °F 21.9 °F 86% 30.02 in 10.0 mi WNW 6.9 mph - N/A   Overcast
9:35 AM 26.8 °F 19.3 °F 22.3 °F 83% 30.02 in 10.0 mi West 6.9 mph - N/A   Overcast
9:55 AM 27.7 °F 19.6 °F 23.2 °F 83% 30.02 in 10.0 mi West 8.1 mph - N/A   Overcast
10:15 AM 28.9 °F 20.4 °F 23.5 °F 80% 30.03 in 10.0 mi West 9.2 mph - N/A   Overcast
10:35 AM 29.1 °F 22.1 °F 23.4 °F 79% 30.02 in 10.0 mi WNW 6.9 mph - N/A   Scattered Clouds
10:55 AM 30.6 °F 23.1 °F 23.5 °F 75% 30.02 in 10.0 mi WNW 8.1 mph - N/A   Clear
11:15 AM 31.3 °F 24.7 °F 23.2 °F 72% 30.01 in 10.0 mi West 6.9 mph - N/A   Clear
11:35 AM 32.4 °F 24.6 °F 23.2 °F 69% 30.01 in 10.0 mi NW 9.2 mph - N/A   Clear
11:55 AM 33.1 °F 25.5 °F 22.6 °F 66% 30.02 in 10.0 mi NNW 9.2 mph - N/A   Clear
12:15 PM 33.4 °F 23.9 °F 22.3 °F 64% 30.00 in 10.0 mi NW 13.8 mph 17.3 mph N/A   Clear
12:35 PM 34.0 °F 25.5 °F 22.8 °F 64% 30.01 in 10.0 mi NW 11.5 mph 17.3 mph N/A   Clear
12:55 PM 34.2 °F 26.2 °F 23.5 °F 65% 30.01 in 10.0 mi NW 10.4 mph - N/A   Clear
1:15 PM 34.3 °F 25.9 °F 23.7 °F 65% 30.01 in 10.0 mi NNW 11.5 mph - N/A   Scattered Clouds
1:35 PM 34.2 °F 25.2 °F 23.5 °F 65% 30.01 in 10.0 mi NW 12.7 mph - N/A   Mostly Cloudy
1:55 PM 34.0 °F 24.6 °F 23.7 °F 66% 30.01 in 10.0 mi WNW 13.8 mph - N/A   Mostly Cloudy
2:14 PM 34.0 °F 25.5 °F 23.9 °F 67% 30.00 in 10.0 mi WNW 11.5 mph - N/A   Scattered Clouds
2:35 PM 34.0 °F 24.2 °F 23.9 °F 67% 30.00 in 10.0 mi WNW 15.0 mph - N/A   Clear
2:55 PM 34.3 °F 25.9 °F 23.9 °F 66% 30.01 in 10.0 mi NW 11.5 mph 17.3 mph N/A   Clear
3:14 PM 34.5 °F 25.7 °F 23.7 °F 65% 30.01 in 10.0 mi NW 12.7 mph - N/A   Scattered Clouds
3:35 PM 34.0 °F 25.5 °F 23.5 °F 66% 30.02 in 10.0 mi NW 11.5 mph 16.1 mph N/A   Scattered Clouds
3:55 PM 32.9 °F 24.1 °F 23.0 °F 67% 30.03 in 10.0 mi NW 11.5 mph - N/A   Mostly Cloudy
4:15 PM 32.7 °F 24.5 °F 23.0 °F 67% 30.04 in 10.0 mi NW 10.4 mph - N/A   Mostly Cloudy
4:35 PM 32.0 °F 22.1 °F 22.6 °F 68% 30.04 in 10.0 mi NW 13.8 mph - N/A   Mostly Cloudy
4:55 PM 32.0 °F 26.4 °F 22.6 °F 68% 30.05 in 10.0 mi WNW 5.8 mph - N/A   Mostly Cloudy
5:15 PM 32.0 °F 27.5 °F 23.0 °F 69% 30.05 in 10.0 mi West 4.6 mph - N/A   Overcast
5:35 PM 32.0 °F 25.6 °F 23.0 °F 69% 30.05 in 10.0 mi West 6.9 mph - N/A   Overcast
5:55 PM 32.0 °F 25.6 °F 23.4 °F 70% 30.07 in 10.0 mi NW 6.9 mph - N/A   Overcast
6:15 PM 31.5 °F 24.2 °F 22.1 °F 68% 30.07 in 10.0 mi NNW 8.1 mph - N/A   Overcast
6:35 PM 31.1 °F 21.9 °F 22.1 °F 69% 30.08 in 10.0 mi North 11.5 mph - N/A   Overcast
6:55 PM 29.3 °F 20.8 °F 21.9 °F 74% 30.09 in 10.0 mi North 9.2 mph - N/A   Overcast
7:15 PM 29.1 °F 21.3 °F 21.2 °F 72% 30.10 in 10.0 mi North 8.1 mph - N/A   Overcast
7:35 PM 28.8 °F - 21.4 °F 74% 30.11 in 10.0 mi Calm Calm - N/A   Overcast
7:55 PM 28.4 °F 22.2 °F 20.7 °F 73% 30.11 in 10.0 mi NNW 5.8 mph - N/A   Overcast
8:15 PM 28.4 °F 24.6 °F 20.1 °F 71% 30.12 in 10.0 mi NNW 3.5 mph - N/A   Overcast
8:35 PM 28.2 °F 23.1 °F 20.1 °F 72% 30.12 in 10.0 mi NNW 4.6 mph - N/A   Overcast
8:55 PM 28.0 °F 24.2 °F 20.5 °F 73% 30.14 in 10.0 mi NNW 3.5 mph - N/A   Overcast
9:15 PM 28.0 °F 20.8 °F 20.3 °F 73% 30.15 in 10.0 mi North 6.9 mph - N/A   Overcast
9:35 PM 27.3 °F 17.7 °F 20.8 °F 77% 30.16 in 10.0 mi North 10.4 mph - N/A   Overcast
9:55 PM 24.8 °F 13.4 °F 18.5 °F 77% 30.18 in 10.0 mi North 12.7 mph - N/A   Overcast
10:15 PM 23.2 °F 11.4 °F 14.7 °F 70% 30.20 in 10.0 mi North 12.7 mph - N/A   Overcast
10:34 PM 21.9 °F 10.4 °F 12.9 °F 68% 30.21 in 10.0 mi North 11.5 mph 19.6 mph N/A   Overcast
10:55 PM 21.6 °F 9.3 °F 13.6 °F 72% 30.22 in 10.0 mi NNW 12.7 mph - N/A   Overcast
11:15 PM 20.5 °F 9.2 °F 12.2 °F 70% 30.23 in 10.0 mi NNW 10.4 mph - N/A   Overcast
11:35 PM 20.1 °F 6.9 °F 11.3 °F 69% 30.24 in 10.0 mi NNW 13.8 mph 18.4 mph N/A   Overcast
11:55 PM 19.8 °F 7.7 °F 11.3 °F 70% 30.26 in 10.0 mi North 11.5 mph - N/A   Overcast